"Period start","avg(HW err(1)/warn(2) (#))","avg(Visibility (m))","avg(Weather code (#))","avg(Precip intensity (mm/h))","min(HW err(1)/warn(2) (#))","max(HW err(1)/warn(2) (#))","std(HW err(1)/warn(2) (#))","med(HW err(1)/warn(2) (#))","min(Visibility (m))","max(Visibility (m))","std(Visibility (m))","med(Visibility (m))","min(Weather code (#))","max(Weather code (#))","std(Weather code (#))","med(Weather code (#))","min(Precip intensity (mm/h))","max(Precip intensity (mm/h))","std(Precip intensity (mm/h))","med(Precip intensity (mm/h))"
2016-06-07 00:00:00,2,880,32,0.00,2,2,0,2,620,1161,146,876,32,32,0,32,0.00,0.00,0.00,0.00
2016-06-07 00:10:00,2,801,32,0.00,2,2,0,2,539,1259,215,754,32,32,0,32,0.00,0.00,0.00,0.00
2016-06-07 00:20:00,2,735,33,0.00,2,2,0,2,570,1108,154,686,32,33,0,33,0.00,0.00,0.00,0.00
2016-06-07 00:30:00,2,1225,33,0.00,2,2,0,2,594,2215,504,1156,33,33,0,33,0.00,0.00,0.00,0.00
2016-06-07 00:40:00,2,1358,23,0.00,2,2,0,2,864,1931,287,1315,20,30,5,20,0.00,0.00,0.00,0.00
2016-06-07 00:50:00,2,1247,20,0.00,2,2,0,2,823,2652,500,1046,20,20,0,20,0.00,0.00,0.00,0.00
2016-06-07 01:00:00,2,899,28,0.00,2,2,0,2,608,1601,281,776,20,32,5,32,0.00,0.00,0.00,0.00
2016-06-07 01:10:00,2,1514,28,0.00,2,2,0,2,1069,2335,371,1420,20,32,5,30,0.00,0.00,0.00,0.00
2016-06-07 01:20:00,2,2298,20,0.00,2,2,0,2,1093,4421,1044,1914,20,20,0,20,0.00,0.00,0.00,0.00
2016-06-07 01:30:00,2,15914,20,0.00,2,2,0,2,7581,29712,6658,15182,20,20,0,20,0.00,0.00,0.00,0.00
2016-06-07 01:40:00,2,20812,20,0.00,2,2,0,2,4233,30679,8950,24856,20,20,0,20,0.00,0.00,0.00,0.00
2016-06-07 01:50:00,2,32456,20,0.00,2,2,0,2,22346,45935,8085,32301,20,20,0,20,0.00,0.00,0.00,0.00
2016-06-07 02:00:00,2,25093,20,0.00,2,2,0,2,16765,30959,4610,25420,20,20,0,20,0.00,0.00,0.00,0.00
2016-06-07 02:10:00,2,30014,14,0.00,2,2,0,2,17321,40229,7033,29800,0,20,9,20,0.00,0.00,0.00,0.00
2016-06-07 02:20:00,2,34235,0,0.00,2,2,0,2,28103,43081,4430,32494,0,0,0,0,0.00,0.00,0.00,0.00
2016-06-07 02:30:00,2,32194,0,0.00,2,2,0,2,17197,41291,8411,34014,0,0,0,0,0.00,0.00,0.00,0.00
2016-06-07 02:40:00,2,27763,0,0.00,2,2,0,2,22159,34802,3796,27564,0,0,0,0,0.00,0.00,0.00,0.00
2016-06-07 02:50:00,2,34271,0,0.00,2,2,0,2,19691,47153,7262,32582,0,0,0,0,0.00,0.00,0.00,0.00
2016-06-07 03:00:00,2,24660,0,0.00,2,2,0,2,17156,39597,6104,23496,0,0,0,0,0.00,0.00,0.00,0.00
2016-06-07 03:10:00,2,31883,0,0.00,2,2,0,2,22547,36910,5077,34405,0,0,0,0,0.00,0.00,0.00,0.00
2016-06-07 03:20:00,2,25221,0,0.00,2,2,0,2,18888,34065,4721,23316,0,0,0,0,0.00,0.00,0.00,0.00
2016-06-07 03:30:00,2,26932,0,0.00,2,2,0,2,19986,35494,5191,26212,0,0,0,0,0.00,0.00,0.00,0.00
2016-06-07 03:40:00,2,28254,0,0.00,2,2,0,2,19503,39747,7310,25772,0,0,0,0,0.00,0.00,0.00,0.00
2016-06-07 03:50:00,2,22850,0,0.00,2,2,0,2,17068,28818,3315,22787,0,0,0,0,0.00,0.00,0.00,0.00
2016-06-07 04:00:00,1,31596,0,0.00,0,2,1,2,25280,38450,4338,31760,0,0,0,0,0.00,0.00,0.00,0.00
2016-06-07 04:10:00,0,25112,0,0.00,0,0,0,0,17502,31208,4102,24758,0,0,0,0,0.00,0.00,0.00,0.00
2016-06-07 04:20:00,0,27569,0,0.00,0,0,0,0,22793,32565,3528,27843,0,0,0,0,0.00,0.00,0.00,0.00
2016-06-07 04:30:00,0,31806,0,0.00,0,0,0,0,20118,50000,8791,27678,0,0,0,0,0.00,0.00,0.00,0.00
2016-06-07 04:40:00,0,31306,0,0.00,0,0,0,0,21140,40241,6154,31131,0,0,0,0,0.00,0.00,0.00,0.00
2016-06-07 04:50:00,0,38159,0,0.00,0,0,0,0,26705,48363,7221,39642,0,0,0,0,0.00,0.00,0.00,0.00
2016-06-07 05:00:00,0,31946,0,0.00,0,0,0,0,27219,38224,3196,31916,0,0,0,0,0.00,0.00,0.00,0.00
2016-06-07 05:10:00,0,30835,0,0.00,0,0,0,0,25196,34553,2611,31026,0,0,0,0,0.00,0.00,0.00,0.00
2016-06-07 05:20:00,0,33469,0,0.00,0,0,0,0,21459,43288,7965,37754,0,0,0,0,0.00,0.00,0.00,0.00
2016-06-07 05:30:00,0,32368,0,0.00,0,0,0,0,26099,41524,5220,32616,0,0,0,0,0.00,0.00,0.00,0.00
2016-06-07 05:40:00,0,30714,0,0.00,0,0,0,0,23200,35080,3879,31761,0,0,0,0,0.00,0.00,0.00,0.00
2016-06-07 05:50:00,0,28372,0,0.00,0,0,0,0,21442,38956,4892,28969,0,0,0,0,0.00,0.00,0.00,0.00
2016-06-07 06:00:00,0,28986,0,0.00,0,0,0,0,25296,32915,2215,28508,0,0,0,0,0.00,0.00,0.00,0.00
2016-06-07 06:10:00,0,35794,0,0.00,0,0,0,0,30213,43396,4295,35268,0,0,0,0,0.00,0.00,0.00,0.00
2016-06-07 06:20:00,0,33884,0,0.00,0,0,0,0,28336,39764,4038,34342,0,0,0,0,0.00,0.00,0.00,0.00
2016-06-07 06:30:00,0,33862,0,0.00,0,0,0,0,25737,44151,5469,35476,0,0,0,0,0.00,0.00,0.00,0.00
2016-06-07 06:40:00,0,35174,0,0.00,0,0,0,0,28767,44610,4724,34500,0,0,0,0,0.00,0.00,0.00,0.00
2016-06-07 06:50:00,0,38179,0,0.00,0,0,0,0,34853,45985,3570,36054,0,0,0,0,0.00,0.00,0.00,0.00
2016-06-07 07:00:00,0,38352,0,0.00,0,0,0,0,34128,43601,2698,38518,0,0,0,0,0.00,0.00,0.00,0.00
2016-06-07 07:10:00,0,38806,0,0.00,0,0,0,0,30904,45020,4793,38382,0,0,0,0,0.00,0.00,0.00,0.00
2016-06-07 07:20:00,0,37703,0,0.00,0,0,0,0,32722,44626,3627,37132,0,0,0,0,0.00,0.00,0.00,0.00
2016-06-07 07:30:00,0,36633,0,0.00,0,0,0,0,23931,46190,7468,37269,0,0,0,0,0.00,0.00,0.00,0.00
2016-06-07 07:40:00,0,37703,0,0.00,0,0,0,0,33149,41766,3381,39268,0,0,0,0,0.00,0.00,0.00,0.00
2016-06-07 07:50:00,0,38984,0,0.00,0,0,0,0,31420,48931,5800,39060,0,0,0,0,0.00,0.00,0.00,0.00
2016-06-07 08:00:00,0,30263,0,0.00,0,0,0,0,26133,37406,3483,29351,0,0,0,0,0.00,0.00,0.00,0.00
2016-06-07 08:10:00,0,32868,0,0.00,0,0,0,0,22081,46933,7003,31584,0,0,0,0,0.00,0.00,0.00,0.00
2016-06-07 08:20:00,0,34126,0,0.00,0,0,0,0,26434,47128,6020,32650,0,0,0,0,0.00,0.00,0.00,0.00
2016-06-07 08:30:00,0,36233,0,0.00,0,0,0,0,27730,45097,5164,36047,0,0,0,0,0.00,0.00,0.00,0.00
2016-06-07 08:40:00,0,31550,0,0.00,0,0,0,0,17102,46118,8399,31628,0,0,0,0,0.00,0.00,0.00,0.00
2016-06-07 08:50:00,0,46920,0,0.00,0,0,0,0,41675,50000,2875,47300,0,0,0,0,0.00,0.00,0.00,0.00
2016-06-07 09:00:00,0,42466,0,0.00,0,0,0,0,36070,47693,3792,43092,0,0,0,0,0.00,0.00,0.00,0.00
2016-06-07 09:10:00,0,39863,0,0.00,0,0,0,0,29090,47002,5610,41724,0,0,0,0,0.00,0.00,0.00,0.00
2016-06-07 09:20:00,0,42868,0,0.00,0,0,0,0,37158,47142,3017,43172,0,0,0,0,0.00,0.00,0.00,0.00
2016-06-07 09:30:00,0,35982,0,0.00,0,0,0,0,28504,42625,4001,34996,0,0,0,0,0.00,0.00,0.00,0.00
2016-06-07 09:40:00,0,34019,0,0.00,0,0,0,0,22155,39896,5102,35106,0,0,0,0,0.00,0.00,0.00,0.00
2016-06-07 09:50:00,0,27871,0,0.00,0,0,0,0,22346,35699,3509,27288,0,0,0,0,0.00,0.00,0.00,0.00
2016-06-07 10:00:00,0,37334,0,0.00,0,0,0,0,31374,42190,3285,37454,0,0,0,0,0.00,0.00,0.00,0.00
2016-06-07 10:10:00,0,32403,0,0.00,0,0,0,0,26925,37454,3006,32854,0,0,0,0,0.00,0.00,0.00,0.00
2016-06-07 10:20:00,0,36202,0,0.00,0,0,0,0,31987,42639,4185,34034,0,0,0,0,0.00,0.00,0.00,0.00
2016-06-07 10:30:00,0,43066,0,0.00,0,0,0,0,34887,50000,5237,41765,0,0,0,0,0.00,0.00,0.00,0.00
2016-06-07 10:40:00,0,38450,0,0.00,0,0,0,0,30252,45474,5156,38725,0,0,0,0,0.00,0.00,0.00,0.00
2016-06-07 10:50:00,0,34355,0,0.00,0,0,0,0,27380,39184,3667,34418,0,0,0,0,0.00,0.00,0.00,0.00
2016-06-07 11:00:00,0,32432,0,0.00,0,0,0,0,24162,47143,7294,29716,0,0,0,0,0.00,0.00,0.00,0.00
2016-06-07 11:10:00,0,39388,0,0.00,0,0,0,0,31471,45123,3723,39047,0,0,0,0,0.00,0.00,0.00,0.00
2016-06-07 11:20:00,0,39412,0,0.00,0,0,0,0,27563,48592,5630,39584,0,0,0,0,0.00,0.00,0.00,0.00
2016-06-07 11:30:00,0,41407,0,0.00,0,0,0,0,32047,48017,4847,40918,0,0,0,0,0.00,0.00,0.00,0.00
2016-06-07 11:40:00,0,37405,0,0.00,0,0,0,0,29802,43726,4126,37716,0,0,0,0,0.00,0.00,0.00,0.00
2016-06-07 11:50:00,0,41457,0,0.00,0,0,0,0,31977,47439,5541,42699,0,0,0,0,0.00,0.00,0.00,0.00
2016-06-07 12:00:00,0,44509,0,0.00,0,0,0,0,37612,49604,3543,44174,0,0,0,0,0.00,0.00,0.00,0.00
2016-06-07 12:10:00,0,39610,0,0.00,0,0,0,0,30724,45620,5153,40448,0,0,0,0,0.00,0.00,0.00,0.00
2016-06-07 12:20:00,0,42312,0,0.00,0,0,0,0,34643,50000,4772,44052,0,0,0,0,0.00,0.00,0.00,0.00
2016-06-07 12:30:00,0,44316,0,0.00,0,0,0,0,35702,49939,5008,46520,0,0,0,0,0.00,0.00,0.00,0.00
2016-06-07 12:40:00,0,41838,0,0.00,0,0,0,0,34973,47993,4119,42260,0,0,0,0,0.00,0.00,0.00,0.00
2016-06-07 12:50:00,0,44372,0,0.00,0,0,0,0,34865,50000,4040,44782,0,0,0,0,0.00,0.00,0.00,0.00
2016-06-07 13:00:00,0,44525,0,0.00,0,0,0,0,38673,49492,2752,44658,0,0,0,0,0.00,0.00,0.00,0.00
2016-06-07 13:10:00,0,48045,0,0.00,0,0,0,0,42227,50000,2632,49677,0,0,0,0,0.00,0.00,0.00,0.00
2016-06-07 13:20:00,0,49340,0,0.00,0,0,0,0,46859,50000,1071,50000,0,0,0,0,0.00,0.00,0.00,0.00
2016-06-07 13:30:00,0,46865,0,0.00,0,0,0,0,38192,50000,3340,48166,0,0,0,0,0.00,0.00,0.00,0.00
2016-06-07 13:40:00,0,49708,0,0.00,0,0,0,0,48297,50000,594,50000,0,0,0,0,0.00,0.00,0.00,0.00
2016-06-07 13:50:00,0,49397,0,0.00,0,0,0,0,47114,50000,1087,50000,0,0,0,0,0.00,0.00,0.00,0.00
2016-06-07 14:00:00,0,48269,0,0.00,0,0,0,0,41207,50000,2923,50000,0,0,0,0,0.00,0.00,0.00,0.00
2016-06-07 14:10:00,0,49615,0,0.00,0,0,0,0,46147,50000,1156,50000,0,0,0,0,0.00,0.00,0.00,0.00
2016-06-07 14:20:00,0,49516,0,0.00,0,0,0,0,46304,50000,1105,50000,0,0,0,0,0.00,0.00,0.00,0.00
2016-06-07 14:30:00,0,49549,0,0.00,0,0,0,0,47119,50000,944,50000,0,0,0,0,0.00,0.00,0.00,0.00
2016-06-07 14:40:00,0,49188,0,0.00,0,0,0,0,44288,50000,1714,50000,0,0,0,0,0.00,0.00,0.00,0.00
2016-06-07 14:50:00,0,48974,0,0.00,0,0,0,0,46922,50000,1115,49330,0,0,0,0,0.00,0.00,0.00,0.00
2016-06-07 15:00:00,0,49964,0,0.00,0,0,0,0,49644,50000,107,50000,0,0,0,0,0.00,0.00,0.00,0.00
2016-06-07 15:10:00,0,50000,0,0.00,0,0,0,0,50000,50000,0,50000,0,0,0,0,0.00,0.00,0.00,0.00
2016-06-07 15:20:00,0,49884,0,0.00,0,0,0,0,49312,50000,237,50000,0,0,0,0,0.00,0.00,0.00,0.00
2016-06-07 15:30:00,0,48340,0,0.00,0,0,0,0,44682,50000,1731,48754,0,0,0,0,0.00,0.00,0.00,0.00
2016-06-07 15:40:00,0,49044,0,0.00,0,0,0,0,46146,50000,1504,50000,0,0,0,0,0.00,0.00,0.00,0.00
2016-06-07 15:50:00,0,45820,0,0.00,0,0,0,0,42560,50000,2578,44908,0,0,0,0,0.00,0.00,0.00,0.00
2016-06-07 16:00:00,0,41943,0,0.00,0,0,0,0,35901,49349,3582,41772,0,0,0,0,0.00,0.00,0.00,0.00
2016-06-07 16:10:00,0,44862,0,0.00,0,0,0,0,36676,50000,4590,47036,0,0,0,0,0.00,0.00,0.00,0.00
2016-06-07 16:20:00,0,39254,0,0.00,0,0,0,0,32090,50000,5407,38268,0,0,0,0,0.00,0.00,0.00,0.00
2016-06-07 16:30:00,0,39689,0,0.00,0,0,0,0,34267,49208,5013,38136,0,0,0,0,0.00,0.00,0.00,0.00
2016-06-07 16:40:00,0,43312,0,0.00,0,0,0,0,38813,50000,3527,42775,0,0,0,0,0.00,0.00,0.00,0.00
2016-06-07 16:50:00,0,42554,0,0.00,0,0,0,0,37867,48912,4052,42320,0,0,0,0,0.00,0.00,0.00,0.00
2016-06-07 17:00:00,0,34007,0,0.00,0,0,0,0,27410,44911,5183,31969,0,0,0,0,0.00,0.00,0.00,0.00
2016-06-07 17:10:00,0,35223,0,0.00,0,0,0,0,29035,39364,2642,35788,0,0,0,0,0.00,0.00,0.00,0.00
2016-06-07 17:20:00,0,31318,0,0.00,0,0,0,0,28170,35277,2263,31400,0,0,0,0,0.00,0.00,0.00,0.00
2016-06-07 17:30:00,0,32522,0,0.00,0,0,0,0,27258,38078,3361,31908,0,0,0,0,0.00,0.00,0.00,0.00
2016-06-07 17:40:00,0,32820,0,0.00,0,0,0,0,26972,42365,4358,32190,0,0,0,0,0.00,0.00,0.00,0.00
2016-06-07 17:50:00,0,28309,0,0.00,0,0,0,0,23984,39357,4666,26426,0,0,0,0,0.00,0.00,0.00,0.00
2016-06-07 18:00:00,0,24787,0,0.00,0,0,0,0,21885,29530,2421,23827,0,0,0,0,0.00,0.00,0.00,0.00
2016-06-07 18:10:00,0,25052,0,0.00,0,0,0,0,21931,30090,2487,24386,0,0,0,0,0.00,0.00,0.00,0.00
2016-06-07 18:20:00,0,19343,0,0.00,0,0,0,0,17077,20849,1322,19522,0,0,0,0,0.00,0.00,0.00,0.00
2016-06-07 18:30:00,0,16694,0,0.00,0,0,0,0,15697,18283,895,16490,0,0,0,0,0.00,0.00,0.00,0.00
2016-06-07 18:40:00,0,16989,0,0.00,0,0,0,0,15648,22134,1830,16566,0,0,0,0,0.00,0.00,0.00,0.00
2016-06-07 18:50:00,0,14897,0,0.00,0,0,0,0,13607,16172,745,14996,0,0,0,0,0.00,0.00,0.00,0.00
2016-06-07 19:00:00,0,15850,0,0.00,0,0,0,0,14098,16891,797,15967,0,0,0,0,0.00,0.00,0.00,0.00
2016-06-07 19:10:00,0,15503,0,0.00,0,0,0,0,13674,17537,1129,15444,0,0,0,0,0.00,0.00,0.00,0.00
2016-06-07 19:20:00,0,15756,0,0.00,0,0,0,0,13840,17086,972,15801,0,0,0,0,0.00,0.00,0.00,0.00
2016-06-07 19:30:00,0,21537,0,0.00,0,0,0,0,18503,24257,1891,21540,0,0,0,0,0.00,0.00,0.00,0.00
2016-06-07 19:40:00,0,26161,0,0.00,0,0,0,0,19856,29845,2902,26296,0,0,0,0,0.00,0.00,0.00,0.00
2016-06-07 19:50:00,0,27536,0,0.00,0,0,0,0,23618,32447,2379,27360,0,0,0,0,0.00,0.00,0.00,0.00
2016-06-07 20:00:00,0,31528,0,0.00,0,0,0,0,24056,41983,5392,30344,0,0,0,0,0.00,0.00,0.00,0.00
2016-06-07 20:10:00,0,28451,0,0.00,0,0,0,0,24004,32482,2354,28394,0,0,0,0,0.00,0.00,0.00,0.00
2016-06-07 20:20:00,0,31179,0,0.00,0,0,0,0,22896,39690,5270,30454,0,0,0,0,0.00,0.00,0.00,0.00
2016-06-07 20:30:00,0,30252,0,0.00,0,0,0,0,24087,36164,3749,31694,0,0,0,0,0.00,0.00,0.00,0.00
2016-06-07 20:40:00,0,27517,0,0.00,0,0,0,0,21923,34970,3949,26718,0,0,0,0,0.00,0.00,0.00,0.00
2016-06-07 20:50:00,0,32726,0,0.00,0,0,0,0,21588,42704,6174,31704,0,0,0,0,0.00,0.00,0.00,0.00
2016-06-07 21:00:00,0,31613,0,0.00,0,0,0,0,23953,41442,5666,30076,0,0,0,0,0.00,0.00,0.00,0.00
2016-06-07 21:10:00,0,34332,0,0.00,0,0,0,0,24498,42842,5950,37242,0,0,0,0,0.00,0.00,0.00,0.00
2016-06-07 21:20:00,0,37246,0,0.00,0,0,0,0,27273,45900,5080,37649,0,0,0,0,0.00,0.00,0.00,0.00
2016-06-07 21:30:00,0,33204,0,0.00,0,0,0,0,26618,42611,6056,30826,0,0,0,0,0.00,0.00,0.00,0.00
2016-06-07 21:40:00,0,43756,0,0.00,0,0,0,0,34487,50000,5276,44683,0,0,0,0,0.00,0.00,0.00,0.00
2016-06-07 21:50:00,0,34923,0,0.00,0,0,0,0,27422,41436,4871,32804,0,0,0,0,0.00,0.00,0.00,0.00
2016-06-07 22:00:00,0,36242,0,0.00,0,0,0,0,24868,41480,4579,36747,0,0,0,0,0.00,0.00,0.00,0.00
2016-06-07 22:10:00,0,37773,0,0.00,0,0,0,0,29430,44981,5850,35168,0,0,0,0,0.00,0.00,0.00,0.00
2016-06-07 22:20:00,0,33113,0,0.00,0,0,0,0,20803,40195,6897,35218,0,0,0,0,0.00,0.00,0.00,0.00
2016-06-07 22:30:00,0,36329,0,0.00,0,0,0,0,23929,47901,6856,35594,0,0,0,0,0.00,0.00,0.00,0.00
2016-06-07 22:40:00,0,29196,0,0.00,0,0,0,0,18289,43316,8157,27046,0,0,0,0,0.00,0.00,0.00,0.00
2016-06-07 22:50:00,0,32596,0,0.00,0,0,0,0,20619,48124,9455,29646,0,0,0,0,0.00,0.00,0.00,0.00
2016-06-07 23:00:00,0,36959,0,0.00,0,0,0,0,22999,50000,9159,35308,0,0,0,0,0.00,0.00,0.00,0.00
2016-06-07 23:10:00,0,30975,0,0.00,0,0,0,0,22263,42845,6136,29608,0,0,0,0,0.00,0.00,0.00,0.00
2016-06-07 23:20:00,0,32066,0,0.00,0,0,0,0,24216,39399,4584,32356,0,0,0,0,0.00,0.00,0.00,0.00
2016-06-07 23:30:00,0,32936,0,0.00,0,0,0,0,23869,50000,7590,32614,0,0,0,0,0.00,0.00,0.00,0.00
2016-06-07 23:40:00,0,30023,0,0.00,0,0,0,0,22883,46451,8508,25156,0,0,0,0,0.00,0.00,0.00,0.00
2016-06-07 23:50:00,0,33612,0,0.00,0,0,0,0,25447,45021,6272,34389,0,0,0,0,0.00,0.00,0.00,0.00
